Погода в Васаи-Вирар

Индия     19°27′28″N   72°48′15″E
темп.,
°C
ветер,
м/с
пор.,
м/с
влажн.,
%
обл.,
%
осадки,
мм/ч
давл.,
гПа
погр.,
м
17 мая, вт
вт1723:30+28зсз34795 0.0 1006478
02:30+28з237811 0.0 1005419
05:30+27зюз227819 0.0 1005413
08:30+29зюз22704 0.0 1006745
11:30+31з54615 0.0 1006753
14:30+31з55614 0.0 1004734
17:30+30з56685 0.0 1003683
20:30+29зюз45754 0.0 1004586
18 мая, ср
ср1823:30+28зюз457497 0.0 1005551
02:30+28з347646 0.0 1004515
05:30+27юз237571 0.0 1005526
08:30+29ююз446413 0.0 10071056
11:30+31зюз545779 0.0 1007960
14:30+31з55605 0.0 1005895
17:30+30зюз55668 0.0 1004852
20:30+28юз567399 0.0 1006742
19 мая, чт
чт1923:30+28зюз56755 0.0 1007696
02:30+28зюз347486 0.0 1006616
05:30+28зюз336722 0.1 10061045
08:30+29зюз336447 0.0 1008951
11:30+30зюз54615 0.0 1008936
14:30+30з65614 0.0 1006891
17:30+30з556529 0.0 1005861
20:30+28юз56720 0.0 1007693
20 мая, пт
пт2023:30+28зюз567510 0.0 1007746
02:30+28зюз567296 0.1 1006815
05:30+28зюз4468100 0.1 1007860
08:30+29юз45615 0.0 10081140
11:30+31зюз66597 0.0 10081153
14:30+31зюз66600 0.0 10061163
17:30+30зюз66660 0.0 10051042
20:30+29юз67720 0.0 1007925
21 мая, сб
сб2123:30+28юз787426 0.1 1008933
02:30+28юз6868100 0.1 10061170
05:30+29юз676547 0.1 10061190
08:30+29юз676495 0.0 10081285
11:30+31зюз78600 0.0 10071154
14:30+31юз79640 0.0 10051076
17:30+30юз897622 0.1 10041002
20:30+29юз787681 0.1 10051043